Wind_Speed
4 3 3 3 3 4 5 4 5 6 5 6 7 6 8 9 9 11 12 13 11 12 11 12 12 13 15 19 21 21 18 20 19 15 13 19 19 19 17 20 20 22 27 30 27
3 1 1 1 2 3 4 4 3 2 2 2 2 3 4 4 6 7 8 9 9 10 10 11 11 12 15 18 20 20 20 15 18 13 17 20 25 25 25 17 19 24 23 30 29
5 3 2 2 2 2 2 3 1 1 0 1 1 1 1 4 5 3 5 7 6 7 8 8 10 12 15 15 22 20 18 19 12 30 28 28 28 31 31 28 20 21 21 30 30
3 3 2 2 2 1 2 2 2 2 1 1 0 2 2 4 4 3 3 3 3 3 4 4 7 9 13 16 20 21 27 32 28 31 28 30 32 32 34 32 28 27 27 30 30
1 1 2 1 1 0 0 0 1 3 2 0 2 4 4 4 2 0 2 1 2 2 1 1 3 5 8 13 16 21 23 30 32 34 35 37 37 36 36 36 32 27 29 31 32
1 1 1 1 1 1 1 1 1 2 2 1 0 3 5 1 4 4 5 5 6 7 7 6 5 4 5 9 12 21 24 27 31 32 35 39 41 38 35 34 39 38 33 31 35
3 4 3 2 2 2 3 2 3 2 2 2 2 4 4 5 4 6 5 6 7 7 8 9 10 10 10 12 10 16 20 18 7 10 17 33 44 46 35 38 34 31 35 38 35
5 5 3 2 2 3 4 4 4 3 3 3 3 4 3 8 8 7 8 9 11 12 13 16 16 13 14 15 15 12 8 9 10 15 11 16 25 7 13 23 36 42 40 37 39
7 6 4 3 4 4 5 5 5 4 4 3 2 3 2 6 6 5 8 10 12 15 17 17 16 14 15 13 7 11 15 19 17 15 17 15 27 19 19 25 32 39 36 30 40
7 6 5 4 5 5 5 6 5 5 5 3 3 3 4 6 4 9 11 12 14 16 17 18 18 13 13 17 10 15 19 19 21 19 26 28 32 31 30 33 31 34 42 41 39
8 8 7 7 7 7 7 7 6 7 6 4 4 1 3 6 6 8 10 14 16 18 16 17 12 13 12 13 12 15 18 22 23 22 25 29 32 31 30 30 35 31 24 25 30
10 10 10 9 8 9 8 8 7 7 7 5 3 0 3 5 7 9 12 15 16 17 14 11 13 11 11 13 14 16 19 21 20 18 26 32 35 34 30 29 29 31 26 27 30
12 12 12 10 9 9 9 9 8 8 6 6 4 1 2 5 7 11 13 14 16 14 12 11 9 11 12 14 19 17 18 19 20 25 21 23 26 13 7 13 18 19 26 28 41
14 14 13 12 11 11 10 10 9 8 3 5 5 4 2 5 6 12 13 14 13 12 7 5 9 14 14 12 17 15 13 14 17 17 15 15 11 10 11 11 3 6 14 22 34
16 15 15 14 12 11 10 9 8 7 3 7 9 5 1 4 5 9 11 12 11 10 10 3 8 14 14 18 15 12 18 14 15 15 15 8 7 6 8 20 13 9 6 26 32
17 16 16 16 14 12 11 10 9 5 5 9 9 6 2 2 3 7 10 9 8 8 9 5 9 11 16 17 11 15 14 11 7 9 7 4 13 21 23 24 19 17 6 10 22
17 17 17 17 16 15 13 12 8 6 8 9 10 8 5 1 1 5 7 10 8 2 5 4 6 8 17 16 6 15 15 7 4 2 4 8 3 16 19 16 20 24 23 15 6
18 18 18 17 17 17 16 16 9 8 11 10 13 9 5 4 2 2 5 6 11 8 4 5 4 9 12 14 14 10 11 8 5 9 9 8 13 12 19 8 19 15 26 27 28
20 19 20 19 19 19 20 18 6 12 13 13 12 9 8 8 5 3 3 4 7 10 3 3 1 5 6 9 15 10 12 10 7 12 8 7 5 15 23 12 12 17 21 30 32
22 21 22 21 21 21 23 19 13 12 10 14 9 10 10 10 7 7 3 1 3 6 5 2 1 2 5 6 9 8 12 5 5 5 3 3 8 14 22 22 19 10 16 21 24
25 24 24 24 23 23 26 22 19 14 14 14 14 12 11 10 9 8 6 4 2 4 4 4 1 2 3 3 11 10 9 6 4 6 4 3 6 15 16 19 22 21 7 9 15
28 27 26 26 27 30 30 25 22 19 17 15 14 15 12 12 10 9 8 5 2 3 2 4 2 2 2 2 6 6 9 8 4 4 5 4 6 12 9 15 18 22 23 14 8
32 31 27 29 33 34 28 26 23 18 18 17 16 16 15 13 8 11 10 6 3 2 1 2 1 2 1 1 1 2 8 7 1 1 7 3 4 8 11 13 15 16 18 24 24
34 31 35 34 34 33 31 26 26 22 19 20 17 17 15 14 13 11 11 7 4 2 2 1 2 3 2 3 3 2 6 6 2 2 3 6 5 7 9 11 11 13 14 15 18
41 37 39 34 41 35 32 25 26 26 24 22 21 18 16 14 14 11 12 10 6 5 4 1 3 3 4 5 5 5 5 3 2 2 2 4 2 2 5 8 11 13 12 13 15
48 46 40 32 25 39 35 36 25 30 24 25 24 19 19 15 11 12 13 10 7 9 7 5 5 4 3 2 4 5 5 4 3 5 4 2 2 3 7 9 12 14 15 15 15
51 49 36 39 36 32 42 35 33 24 28 24 18 20 18 16 14 13 12 11 9 9 9 7 7 5 3 4 4 8 12 10 7 6 4 5 5 8 10 14 17 17 17 18 24
Wind_Direction
216 221 236 263 292 305 289 285 290 280 266 257 253 247 237 228 225 224 225 232 234 234 236 239 240 239 239 239 239 239 242 248 247 253 264 263 264 259 248 245 240 228 226 223 232
153 149 87 23 4 4 337 344 311 303 303 270 259 227 227 216 214 220 223 226 226 232 237 238 237 236 238 241 241 234 245 258 241 238 253 262 252 253 257 253 248 231 235 234 236
115 103 91 77 43 25 7 282 296 38 275 294 176 249 238 223 209 243 249 240 235 239 244 242 249 241 244 240 243 238 243 244 244 245 256 258 258 252 254 251 254 253 226 237 235
120 123 97 45 6 349 317 356 322 332 339 244 163 154 192 199 182 242 237 225 226 237 246 245 241 242 240 241 251 247 253 252 242 254 254 254 256 256 251 253 237 241 231 234 232
135 83 49 13 298 298 202 316 317 324 347 321 189 172 153 173 89 324 235 60 32 43 2 282 255 252 246 250 255 252 250 258 260 255 253 257 257 259 250 257 256 247 242 242 242
317 318 291 261 262 186 198 186 216 251 276 247 186 145 160 244 31 40 40 24 13 16 11 3 351 328 288 272 254 263 259 266 269 273 267 259 257 256 249 263 255 251 240 234 239
282 272 258 242 209 193 205 200 201 221 219 215 152 99 100 96 90 45 34 18 12 18 14 9 3 353 329 310 290 284 292 297 290 283 289 269 260 251 262 257 258 254 251 237 235
267 268 257 236 210 192 201 192 187 204 212 190 160 144 123 81 67 36 16 16 14 13 10 6 3 356 344 331 330 326 334 340 276 311 291 288 262 249 251 239 246 246 250 243 232
255 255 251 214 213 191 198 193 186 185 186 175 153 99 90 55 46 31 24 22 16 14 11 11 15 15 8 6 3 349 325 315 311 308 301 279 277 267 254 271 255 245 252 253 238
242 246 247 227 211 198 195 191 189 180 166 150 137 99 55 54 39 25 18 19 22 17 22 22 36 40 19 24 3 327 323 312 304 306 296 290 284 281 275 269 263 255 246 246 243
225 233 235 231 214 201 197 189 176 184 185 200 143 145 59 50 46 25 19 25 20 30 39 46 47 40 21 2 338 319 311 305 305 303 298 293 291 290 283 272 260 254 261 261 256
223 223 226 224 218 202 200 198 201 179 171 182 197 240 46 56 40 22 27 28 30 39 45 58 45 20 1 347 335 323 309 305 308 308 301 297 293 293 277 269 258 253 259 263 248
220 220 219 219 217 211 200 200 203 200 189 206 208 243 25 47 26 24 27 32 36 38 62 64 30 14 358 346 333 330 304 304 309 314 308 302 307 330 292 289 256 239 247 257 246
217 215 216 214 212 211 205 202 203 198 173 223 211 210 344 31 22 25 25 27 32 37 62 51 18 5 352 345 339 343 337 311 311 317 301 308 299 338 333 59 69 244 265 256 246
225 213 211 208 210 207 206 199 194 190 213 192 198 195 63 56 12 23 33 32 31 39 60 5 6 0 4 351 340 329 339 313 306 306 307 280 251 359 10 16 22 6 334 240 242
232 219 209 206 202 204 201 199 186 177 215 187 182 182 176 72 29 38 41 40 40 52 40 40 17 19 6 347 353 344 334 317 302 304 277 274 238 37 24 8 14 30 66 225 235
235 227 212 205 203 198 196 188 174 216 192 194 198 193 196 199 56 48 57 53 61 75 35 28 25 11 14 18 6 345 351 319 317 306 317 337 92 31 30 24 33 44 50 86 163
235 231 222 207 202 195 189 185 212 209 175 187 191 192 180 187 169 48 69 55 47 54 63 39 142 30 23 21 339 348 7 333 305 349 326 56 4 21 38 57 53 54 56 78 90
231 234 226 213 202 196 190 197 215 208 208 194 179 181 202 199 174 157 131 85 58 50 91 17 183 26 15 24 23 352 355 310 263 276 289 93 48 19 45 53 29 71 81 89 85
220 227 231 220 210 200 201 205 217 207 193 195 184 189 184 188 175 171 174 107 44 31 54 3 296 265 316 14 356 3 357 342 337 312 341 77 55 8 18 32 40 22 61 82 93
216 217 224 222 216 209 210 211 223 215 202 192 205 200 190 192 185 184 185 181 62 19 42 33 151 288 322 360 4 9 9 360 307 6 328 342 42 1 27 31 27 33 40 22 86
219 216 217 219 216 218 217 213 218 216 216 212 212 211 204 199 191 187 189 190 160 58 83 3 200 285 258 196 19 16 14 15 356 5 354 315 32 2 11 28 38 21 27 29 342
219 218 217 217 217 222 223 219 219 218 212 215 216 213 211 199 195 190 192 203 186 68 126 358 298 289 202 265 324 320 356 354 291 30 19 335 41 39 33 35 24 19 18 18 12
216 216 217 220 221 223 223 221 218 219 215 215 217 216 208 201 207 195 191 210 215 249 191 97 205 226 306 267 253 286 336 349 341 301 99 67 86 44 29 23 16 17 17 11 360
215 218 224 218 218 220 221 221 217 215 214 212 218 216 213 206 206 199 194 211 231 245 204 228 191 233 262 257 235 262 296 333 248 227 299 157 77 14 358 0 359 356 354 357 357
218 214 219 223 217 221 218 219 218 215 215 215 217 219 216 215 209 217 207 207 223 203 210 226 206 209 206 225 228 240 233 197 148 134 143 142 332 337 331 339 340 341 337 335 338
219 219 218 228 221 221 219 218 216 212 216 219 221 221 214 209 210 208 206 218 220 205 221 212 196 188 232 244 214 254 210 198 208 207 211 271 273 312 319 327 329 329 328 323 316
Height
3111 3111 3111 3111 3110 3110 3110 3110 3110 3110 3110 3110 3111 3111 3112 3114 3114 3116 3117 3118 3120 3122 3124 3125 3127 3129 3131 3132 3135 3136 3139 3138 3142 3143 3146 3142 3144 3145 3145 3148 3150 3152 3154 3152 3153
3109 3109 3109 3109 3109 3110 3109 3108 3109 3109 3110 3110 3110 3111 3112 3113 3113 3114 3116 3117 3118 3120 3121 3122 3124 3126 3127 3129 3130 3133 3134 3137 3136 3135 3138 3138 3138 3139 3140 3144 3146 3148 3150 3149 3149
3107 3108 3108 3109 3109 3109 3109 3111 3110 3109 3110 3111 3111 3111 3111 3112 3114 3114 3113 3115 3116 3117 3118 3120 3121 3124 3124 3126 3125 3127 3130 3128 3130 3125 3130 3132 3132 3131 3133 3137 3143 3144 3144 3142 3145
3107 3107 3108 3108 3109 3110 3109 3109 3110 3110 3111 3111 3111 3111 3112 3112 3115 3112 3112 3113 3114 3115 3116 3117 3119 3120 3121 3122 3122 3123 3121 3120 3122 3121 3124 3125 3125 3127 3127 3129 3133 3135 3138 3138 3139
3107 3106 3106 3108 3109 3109 3109 3109 3110 3109 3110 3111 3112 3112 3112 3113 3111 3111 3111 3111 3111 3113 3114 3114 3115 3116 3116 3116 3116 3117 3117 3112 3113 3115 3117 3118 3120 3121 3120 3123 3125 3129 3132 3135 3134
3107 3106 3106 3107 3108 3108 3108 3109 3110 3111 3110 3110 3110 3112 3113 3114 3110 3110 3109 3110 3110 3111 3110 3110 3111 3111 3111 3111 3112 3110 3110 3109 3108 3110 3109 3110 3111 3116 3115 3116 3116 3119 3125 3128 3129
3106 3107 3106 3107 3107 3107 3108 3108 3109 3111 3111 3111 3110 3110 3112 3113 3112 3110 3110 3110 3110 3109 3109 3108 3107 3107 3107 3107 3106 3105 3106 3105 3105 3103 3102 3100 3100 3103 3111 3111 3111 3111 3114 3121 3124
3105 3106 3105 3106 3106 3107 3108 3108 3109 3110 3111 3111 3111 3112 3112 3111 3110 3110 3109 3109 3108 3106 3105 3103 3102 3102 3102 3101 3100 3101 3102 3105 3103 3098 3100 3099 3095 3103 3100 3098 3100 3103 3106 3111 3117
3104 3105 3105 3105 3106 3106 3107 3108 3109 3110 3110 3110 3111 3110 3112 3111 3111 3110 3109 3109 3106 3104 3102 3100 3099 3099 3099 3100 3103 3102 3103 3102 3100 3097 3094 3095 3090 3095 3096 3091 3090 3093 3097 3102 3106
3102 3103 3104 3104 3104 3105 3106 3107 3108 3109 3109 3110 3110 3113 3112 3112 3110 3108 3108 3108 3105 3103 3101 3100 3098 3104 3102 3100 3103 3102 3101 3099 3096 3096 3091 3087 3083 3084 3085 3083 3083 3084 3087 3091 3094
3099 3100 3102 3103 3103 3104 3105 3107 3110 3110 3108 3109 3110 3110 3111 3111 3109 3109 3108 3106 3104 3102 3100 3099 3104 3102 3100 3099 3099 3099 3098 3095 3093 3091 3085 3082 3078 3077 3075 3074 3074 3077 3080 3083 3086
3095 3097 3099 3101 3102 3102 3104 3105 3106 3108 3108 3107 3108 3109 3109 3109 3109 3108 3107 3106 3103 3101 3098 3102 3101 3100 3099 3098 3097 3097 3094 3090 3089 3087 3083 3077 3071 3068 3067 3064 3066 3070 3076 3076 3074
3092 3094 3096 3098 3100 3101 3102 3103 3104 3105 3107 3107 3107 3107 3108 3109 3107 3106 3105 3104 3102 3101 3101 3101 3102 3099 3099 3098 3094 3094 3091 3088 3087 3081 3077 3073 3067 3060 3060 3060 3061 3065 3067 3064 3066
3088 3090 3092 3094 3099 3099 3100 3101 3103 3104 3107 3108 3106 3106 3106 3106 3107 3105 3103 3103 3102 3101 3100 3101 3100 3099 3099 3097 3092 3089 3087 3084 3082 3080 3075 3073 3070 3064 3058 3056 3062 3061 3059 3058 3060
3086 3087 3089 3091 3094 3096 3099 3100 3101 3104 3107 3106 3104 3105 3104 3106 3106 3105 3103 3100 3101 3101 3102 3103 3100 3097 3096 3093 3089 3088 3083 3082 3081 3077 3074 3071 3072 3065 3059 3058 3055 3057 3054 3051 3054
3084 3084 3085 3088 3090 3094 3096 3098 3101 3105 3101 3101 3101 3102 3104 3104 3104 3104 3103 3102 3101 3101 3101 3100 3098 3098 3095 3092 3088 3086 3084 3080 3077 3075 3070 3067 3067 3064 3062 3060 3056 3051 3047 3046 3048
3081 3082 3083 3084 3087 3089 3093 3097 3102 3099 3099 3099 3099 3100 3102 3102 3103 3102 3102 3101 3102 3104 3102 3101 3100 3098 3095 3091 3089 3088 3083 3075 3072 3070 3065 3065 3065 3068 3065 3062 3055 3050 3046 3043 3042
3077 3079 3081 3082 3084 3086 3090 3095 3094 3092 3093 3093 3096 3098 3101 3101 3102 3101 3101 3102 3100 3100 3102 3102 3100 3099 3096 3094 3091 3088 3087 3086 3077 3067 3065 3067 3071 3072 3066 3061 3056 3052 3047 3041 3039
3072 3075 3077 3079 3080 3083 3087 3088 3087 3088 3090 3091 3094 3097 3098 3098 3101 3100 3100 3101 3099 3098 3101 3100 3100 3097 3095 3093 3092 3089 3089 3088 3083 3075 3070 3073 3075 3072 3067 3064 3061 3054 3047 3041 3040
3065 3069 3073 3075 3077 3080 3083 3082 3083 3085 3086 3088 3092 3093 3095 3096 3098 3098 3098 3099 3098 3097 3097 3097 3099 3096 3095 3094 3093 3090 3090 3087 3083 3076 3068 3076 3075 3077 3071 3066 3061 3059 3053 3045 3042
3059 3061 3066 3070 3073 3076 3075 3078 3079 3081 3084 3087 3088 3089 3091 3092 3094 3095 3097 3097 3096 3095 3095 3095 3097 3098 3095 3093 3092 3091 3090 3088 3085 3084 3077 3071 3080 3078 3075 3071 3066 3061 3057 3056 3050
3053 3055 3058 3063 3068 3066 3069 3072 3075 3077 3080 3082 3085 3086 3088 3089 3091 3092 3093 3094 3094 3094 3094 3094 3095 3095 3095 3092 3091 3090 3090 3088 3086 3086 3083 3081 3083 3079 3076 3072 3069 3065 3061 3057 3056
3045 3048 3051 3054 3056 3059 3064 3068 3071 3073 3076 3078 3081 3083 3085 3087 3089 3089 3090 3091 3092 3092 3092 3093 3093 3094 3093 3094 3091 3090 3089 3088 3086 3086 3085 3080 3083 3081 3078 3076 3073 3070 3066 3061 3059
3039 3041 3042 3043 3048 3054 3059 3062 3065 3068 3071 3074 3076 3079 3082 3083 3085 3086 3087 3088 3089 3090 3090 3090 3091 3092 3091 3091 3089 3089 3088 3087 3085 3085 3083 3084 3084 3082 3081 3079 3077 3073 3070 3067 3062
3027 3027 3030 3031 3038 3047 3053 3055 3059 3062 3066 3069 3072 3075 3078 3080 3082 3084 3086 3085 3087 3087 3088 3088 3089 3089 3088 3087 3087 3086 3086 3086 3085 3084 3083 3084 3083 3083 3081 3079 3076 3074 3071 3069 3064
3015 3018 3022 3027 3036 3040 3043 3047 3053 3056 3059 3062 3066 3070 3073 3076 3079 3080 3082 3084 3084 3085 3086 3086 3087 3086 3086 3086 3086 3086 3085 3084 3083 3083 3083 3082 3082 3080 3079 3077 3076 3073 3070 3067 3063
3002 3010 3019 3020 3028 3031 3032 3042 3046 3050 3055 3058 3063 3066 3069 3073 3075 3076 3079 3080 3081 3083 3084 3084 3084 3085 3086 3086 3086 3085 3081 3082 3081 3081 3081 3081 3080 3078 3077 3075 3071 3069 3066 3063 3059